Tracking 31027 objects as of 19-Jul-2025
HD Live streaming from Space Station
objects crossing your sky now

DMSP 5D-3 F19 DEB

Track DMSP 5D-3 F19 DEB now!
10-day predictions


NORAD ID: 39632
Int'l Code: 2014-015C
Perigee: 812.6 km
Apogee: 820.8 km
Inclination: 98.7 °
Period: 101.1 minutes
Semi major axis: 7187 km
RCS: Unknown
Launch date: April 3, 2014
Source: United States (US)
Launch site: AIR FORCE WESTERN TEST RANGE (AFWTR)

Note: This is SATELLITE DEBRIS
Your satellite tracking list
LANDSAT 5
Track 1 satellite(s)




NASA's NSSDC Master Catalog

Two Line Element Set (TLE):
1 39632U 14015C   25199.46490429  .00001317  00000-0  58506-3 0  9997
2 39632  98.6713 210.4930 0005699  32.1213 328.0313 14.24670446584217
Source of the keplerian elements: AFSPC